Regional Weather Roundup
Issued by NWS Goodland, KS

Home | Current Version | Previous Version | Text Only | Print | Product List | Glossary Off
Versions: 1 2 3 4 5 6 7 8 9 10 11 12 13 14 15 16 17 18 19 20 21 22 23 24 25 26 27 28 29 30 31 32 33 34 35 36 37 38 39 40 41 42 43 44 45 46 47 48 49 50

000
ASUS43 KGLD 022308
RWRGLD

GOODLAND FORECAST AREA HOURLY WEATHER ROUNDUP
NATIONAL WEATHER SERVICE GOODLAND KS
400 PM MST MON MAR 02 2015

...OFFICIAL OBSERVATIONS...

CITY           SKY/WX    TMP DP  RH WIND       PRES   REMARKS
GOODLAND KS    CLOUDY    30  28  92 S22G29    29.83F FOG     WCI  17
HILL CITY KS   CLOUDY    34  21  59 S16       29.99F
IMPERIAL NEB     N/A     32  22  66 S18G28    29.84F
MCCOOK NEB     CLOUDY    34  23  64 S22G31    29.93F
AKRON CO       CLOUDY    36  27  69 SE20      29.69F
BURLINGTON CO  CLOUDY    33  28  81 S23       29.78F
LIMON CO       PTSUNNY   29  26  89 S21       29.74F WCI  16
$$

...UNOFFICIAL OBSERVATIONS...

CITY           SKY/WX    TMP DP  RH WIND       PRES   REMARKS
COLBY KS       CLOUDY    32  30  93 S16G23    29.88F FOG
GOVE KS          N/A     32  32 100 MISG        N/A
LENORA KS        N/A     32  32 100 S17         N/A
NORTON KS      CLOUDY    34  18  51 SE20G25   29.96F
SHARON SPRINGS   N/A     31  29  91 S20G29      N/A  WCI  19
TRIBUNE KS     CLOUDY    34  34 100 SE20G26   29.85F
KIT CARSON CO    N/A     35  31  87 MISG        N/A
YUMA CO          N/A     33  26  76 SE12G20     N/A
$$


USA.gov is the U.S. government's official web portal to all federal, state and local government web resources and services.